Time,TemperatureF,DewpointF,PressureIn,WindDirection,WindDirectionDegrees,WindSpeedMPH,WindSpeedGustMPH,Humidity,HourlyPrecipIn,Conditions,Clouds,dailyrainin,SolarRadiationWatts/m^2,SoftwareType,DateUTC
2013-04-19 00:01:00,23.0,13.0,-100.00,South,180,3.0,8.0,65,0.00,,,0.22,0.000000,,2013-04-19 06:01:00,
2013-04-19 00:11:00,23.0,13.0,-100.00,South,180,3.0,8.0,65,0.00,,,0.22,0.000000,,2013-04-19 06:11:00,
2013-04-19 00:22:00,23.0,13.0,-100.00,South,180,3.0,8.0,65,0.00,,,0.22,0.000000,,2013-04-19 06:22:00,
2013-04-19 00:31:00,23.0,13.0,-100.00,South,180,3.0,8.0,65,0.00,,,0.22,0.000000,,2013-04-19 06:31:00,
2013-04-19 00:40:00,23.0,13.0,-100.00,SW,219,4.0,7.0,65,0.00,,,0.22,0.000000,,2013-04-19 06:40:00,
2013-04-19 01:02:00,23.0,13.0,-100.00,SW,219,4.0,7.0,65,0.00,,,0.22,0.000000,,2013-04-19 07:02:00,
2013-04-19 01:12:00,23.0,13.0,-100.00,SW,219,4.0,7.0,65,0.00,,,0.22,0.000000,,2013-04-19 07:12:00,
2013-04-19 01:21:00,23.0,13.0,-100.00,SW,219,4.0,7.0,65,0.00,,,0.22,0.000000,,2013-04-19 07:21:00,
2013-04-19 01:31:00,23.0,13.0,-100.00,SW,219,4.0,7.0,65,0.00,,,0.22,0.000000,,2013-04-19 07:31:00,
2013-04-19 01:40:00,23.0,13.0,-100.00,South,174,4.0,11.0,66,0.00,,,0.22,0.000000,,2013-04-19 07:40:00,
2013-04-19 02:02:00,23.0,13.0,-100.00,South,174,4.0,11.0,66,0.00,,,0.22,0.000000,,2013-04-19 08:02:00,
2013-04-19 02:12:00,23.0,13.0,-100.00,South,174,4.0,11.0,66,0.00,,,0.22,0.000000,,2013-04-19 08:12:00,
2013-04-19 02:21:00,23.0,13.0,-100.00,South,174,4.0,11.0,66,0.00,,,0.22,0.000000,,2013-04-19 08:21:00,
2013-04-19 02:32:00,23.0,13.0,-100.00,South,174,4.0,11.0,66,0.00,,,0.22,0.000000,,2013-04-19 08:32:00,
2013-04-19 02:40:00,22.0,13.0,-100.00,SSW,200,6.0,11.0,69,0.00,,,0.22,0.000000,,2013-04-19 08:40:00,
2013-04-19 03:01:00,22.0,13.0,-100.00,SSW,200,6.0,11.0,69,0.00,,,0.22,0.000000,,2013-04-19 09:01:00,
2013-04-19 03:11:00,22.0,13.0,-100.00,SSW,200,6.0,11.0,69,0.00,,,0.22,0.000000,,2013-04-19 09:11:00,
2013-04-19 03:21:00,22.0,13.0,-100.00,SSW,200,6.0,11.0,69,0.00,,,0.22,0.000000,,2013-04-19 09:21:00,
2013-04-19 03:32:00,22.0,13.0,-100.00,SSW,200,6.0,11.0,69,0.00,,,0.22,0.000000,,2013-04-19 09:32:00,
2013-04-19 03:40:00,25.0,14.0,-100.00,West,259,11.0,21.0,63,0.00,,,0.22,0.000000,,2013-04-19 09:40:00,
2013-04-19 04:02:00,25.0,14.0,-100.00,West,259,11.0,21.0,63,0.00,,,0.22,0.000000,,2013-04-19 10:02:00,
2013-04-19 04:13:00,25.0,14.0,-100.00,West,259,11.0,21.0,63,0.00,,,0.22,0.000000,,2013-04-19 10:13:00,
2013-04-19 04:23:00,25.0,14.0,-100.00,West,259,11.0,21.0,63,0.00,,,0.22,0.000000,,2013-04-19 10:23:00,
2013-04-19 04:33:00,25.0,14.0,-100.00,West,259,11.0,21.0,63,0.00,,,0.22,0.000000,,2013-04-19 10:33:00,
2013-04-19 04:40:00,26.0,15.0,-100.00,West,266,9.0,20.0,62,0.00,,,0.22,0.000000,,2013-04-19 10:40:00,
2013-04-19 05:02:00,26.0,15.0,-100.00,West,266,9.0,20.0,62,0.00,,,0.22,0.000000,,2013-04-19 11:02:00,
2013-04-19 05:11:00,26.0,15.0,-100.00,West,266,9.0,20.0,62,0.00,,,0.22,0.000000,,2013-04-19 11:11:00,
2013-04-19 05:22:00,26.0,15.0,-100.00,West,266,9.0,20.0,62,0.00,,,0.22,0.000000,,2013-04-19 11:22:00,
2013-04-19 05:32:00,26.0,15.0,-100.00,West,266,9.0,20.0,62,0.00,,,0.22,0.000000,,2013-04-19 11:32:00,
2013-04-19 05:40:00,26.0,15.0,-100.00,West,264,6.0,18.0,62,0.00,,,0.22,0.000000,,2013-04-19 11:40:00,
2013-04-19 06:02:00,26.0,15.0,-100.00,West,264,6.0,18.0,62,0.00,,,0.22,0.000000,,2013-04-19 12:02:00,
2013-04-19 06:12:00,26.0,15.0,-100.00,West,264,6.0,18.0,62,0.00,,,0.22,0.000000,,2013-04-19 12:12:00,
2013-04-19 06:22:00,26.0,15.0,-100.00,West,264,6.0,18.0,62,0.00,,,0.22,0.000000,,2013-04-19 12:22:00,
2013-04-19 06:32:00,26.0,15.0,-100.00,West,264,6.0,18.0,62,0.00,,,0.22,0.000000,,2013-04-19 12:32:00,
2013-04-19 06:40:00,25.0,16.0,-100.00,WNW,302,6.0,11.0,68,0.00,,,0.22,3.000000,,2013-04-19 12:40:00,
2013-04-19 07:01:00,25.0,16.0,-100.00,WNW,302,6.0,11.0,68,0.00,,,0.22,3.000000,,2013-04-19 13:01:00,
2013-04-19 07:11:00,25.0,16.0,-100.00,WNW,302,6.0,11.0,68,0.00,,,0.22,3.000000,,2013-04-19 13:11:00,
2013-04-19 07:21:00,25.0,16.0,-100.00,WNW,302,6.0,11.0,68,0.00,,,0.22,3.000000,,2013-04-19 13:21:00,
2013-04-19 07:32:00,25.0,16.0,-100.00,WNW,302,6.0,11.0,68,0.00,,,0.22,3.000000,,2013-04-19 13:32:00,
2013-04-19 07:40:00,27.0,18.0,-100.00,SSW,201,7.0,13.0,67,0.00,,,0.22,107.000000,,2013-04-19 13:40:00,
2013-04-19 08:01:00,27.0,18.0,-100.00,SSW,201,7.0,13.0,67,0.00,,,0.22,107.000000,,2013-04-19 14:01:00,
2013-04-19 08:11:00,27.0,18.0,-100.00,SSW,201,7.0,13.0,67,0.00,,,0.22,107.000000,,2013-04-19 14:11:00,
2013-04-19 08:21:00,27.0,18.0,-100.00,SSW,201,7.0,13.0,67,0.00,,,0.22,107.000000,,2013-04-19 14:21:00,
2013-04-19 08:32:00,27.0,18.0,-100.00,SSW,201,7.0,13.0,67,0.00,,,0.22,107.000000,,2013-04-19 14:32:00,
2013-04-19 09:01:00,32.0,19.0,-100.00,SW,231,7.0,14.0,58,0.00,,,0.22,305.000000,,2013-04-19 15:01:00,
2013-04-19 09:12:00,32.0,19.0,-100.00,SW,231,7.0,14.0,58,0.00,,,0.22,305.000000,,2013-04-19 15:12:00,
2013-04-19 09:21:00,32.0,19.0,-100.00,SW,231,7.0,14.0,58,0.00,,,0.22,305.000000,,2013-04-19 15:21:00,
2013-04-19 09:33:00,32.0,19.0,-100.00,SW,231,7.0,14.0,58,0.00,,,0.22,305.000000,,2013-04-19 15:33:00,
2013-04-19 10:03:00,36.0,20.0,-100.00,NE,42,6.0,14.0,52,0.00,,,0.21,550.000000,,2013-04-19 16:03:00,
2013-04-19 11:02:00,41.0,21.0,-100.00,SSW,211,6.0,15.0,44,0.00,,,0.17,757.000000,,2013-04-19 17:02:00,
2013-04-19 11:40:00,35.0,19.0,-100.00,West,263,5.0,13.0,52,0.00,,,0.11,774.000000,,2013-04-19 17:40:00,
2013-04-19 12:01:00,35.0,19.0,-100.00,West,263,5.0,13.0,52,0.00,,,0.11,774.000000,,2013-04-19 18:01:00,
2013-04-19 12:13:00,35.0,19.0,-100.00,West,263,5.0,13.0,52,0.00,,,0.11,774.000000,,2013-04-19 18:13:00,
2013-04-19 12:22:00,35.0,19.0,-100.00,West,263,5.0,13.0,52,0.00,,,0.11,774.000000,,2013-04-19 18:22:00,
2013-04-19 12:33:00,35.0,19.0,-100.00,West,263,5.0,13.0,52,0.00,,,0.11,774.000000,,2013-04-19 18:33:00,
2013-04-19 13:01:00,47.0,21.0,-100.00,West,268,8.0,20.0,35,0.00,,,0.04,821.000000,,2013-04-19 19:01:00,
2013-04-19 14:01:00,46.0,22.0,-100.00,West,264,11.0,22.0,38,0.00,,,0.00,1279.000000,,2013-04-19 20:01:00,
2013-04-19 14:40:00,39.0,20.0,-100.00,SSW,211,14.0,23.0,46,0.00,,,0.00,913.000000,,2013-04-19 20:40:00,
2013-04-19 15:01:00,39.0,20.0,-100.00,SSW,211,14.0,23.0,46,0.00,,,0.00,913.000000,,2013-04-19 21:01:00,
2013-04-19 15:11:00,39.0,20.0,-100.00,SSW,211,14.0,23.0,46,0.00,,,0.00,913.000000,,2013-04-19 21:11:00,
2013-04-19 15:21:00,39.0,20.0,-100.00,SSW,211,14.0,23.0,46,0.00,,,0.00,913.000000,,2013-04-19 21:21:00,
2013-04-19 15:32:00,39.0,20.0,-100.00,SSW,211,14.0,23.0,46,0.00,,,0.00,913.000000,,2013-04-19 21:32:00,
2013-04-19 15:40:00,36.0,22.0,-100.00,SW,215,14.0,25.0,56,0.00,,,0.00,495.000000,,2013-04-19 21:40:00,
2013-04-19 16:02:00,36.0,22.0,-100.00,SW,215,14.0,25.0,56,0.00,,,0.00,495.000000,,2013-04-19 22:02:00,
2013-04-19 16:12:00,36.0,22.0,-100.00,SW,215,14.0,25.0,56,0.00,,,0.00,495.000000,,2013-04-19 22:12:00,
2013-04-19 16:22:00,36.0,22.0,-100.00,SW,215,14.0,25.0,56,0.00,,,0.00,495.000000,,2013-04-19 22:22:00,
2013-04-19 16:33:00,36.0,22.0,-100.00,SW,215,14.0,25.0,56,0.00,,,0.00,495.000000,,2013-04-19 22:33:00,
2013-04-19 16:40:00,34.0,21.0,-100.00,SSW,207,11.0,24.0,58,0.00,,,0.00,289.000000,,2013-04-19 22:40:00,
2013-04-19 17:02:00,34.0,21.0,-100.00,SSW,207,11.0,24.0,58,0.00,,,0.00,289.000000,,2013-04-19 23:02:00,
2013-04-19 17:11:00,34.0,21.0,-100.00,SSW,207,11.0,24.0,58,0.00,,,0.00,289.000000,,2013-04-19 23:11:00,
2013-04-19 17:22:00,34.0,21.0,-100.00,SSW,207,11.0,24.0,58,0.00,,,0.00,289.000000,,2013-04-19 23:22:00,
2013-04-19 17:32:00,34.0,21.0,-100.00,SSW,207,11.0,24.0,58,0.00,,,0.00,289.000000,,2013-04-19 23:32:00,
2013-04-19 17:40:00,36.0,22.0,-100.00,SW,221,11.0,19.0,57,0.00,,,0.00,378.000000,,2013-04-19 23:40:00,
2013-04-19 18:02:00,36.0,22.0,-100.00,SW,221,11.0,19.0,57,0.00,,,0.00,378.000000,,2013-04-20 00:02:00,
2013-04-19 18:12:00,36.0,22.0,-100.00,SW,221,11.0,19.0,57,0.00,,,0.00,378.000000,,2013-04-20 00:12:00,
2013-04-19 18:21:00,36.0,22.0,-100.00,SW,221,11.0,19.0,57,0.00,,,0.00,378.000000,,2013-04-20 00:21:00,
2013-04-19 18:31:00,36.0,22.0,-100.00,SW,221,11.0,19.0,57,0.00,,,0.00,378.000000,,2013-04-20 00:31:00,
2013-04-19 18:40:00,37.0,24.0,-100.00,SSW,212,10.0,22.0,58,0.00,,,0.00,325.000000,,2013-04-20 00:40:00,
2013-04-19 19:01:00,37.0,24.0,-100.00,SSW,212,10.0,22.0,58,0.00,,,0.00,325.000000,,2013-04-20 01:01:00,
2013-04-19 19:11:00,37.0,24.0,-100.00,SSW,212,10.0,22.0,58,0.00,,,0.00,325.000000,,2013-04-20 01:11:00,
2013-04-19 19:21:00,37.0,24.0,-100.00,SSW,212,10.0,22.0,58,0.00,,,0.00,325.000000,,2013-04-20 01:21:00,
2013-04-19 19:32:00,37.0,24.0,-100.00,SSW,212,10.0,22.0,58,0.00,,,0.00,325.000000,,2013-04-20 01:32:00,
2013-04-19 19:40:00,31.0,23.0,-100.00,SSW,196,11.0,21.0,71,0.00,,,0.00,108.000000,,2013-04-20 01:40:00,
2013-04-19 20:01:00,31.0,23.0,-100.00,SSW,196,11.0,21.0,71,0.00,,,0.00,108.000000,,2013-04-20 02:01:00,
2013-04-19 20:11:00,31.0,23.0,-100.00,SSW,196,11.0,21.0,71,0.00,,,0.00,108.000000,,2013-04-20 02:11:00,
2013-04-19 20:21:00,31.0,23.0,-100.00,SSW,196,11.0,21.0,71,0.00,,,0.00,108.000000,,2013-04-20 02:21:00,
2013-04-19 20:32:00,31.0,23.0,-100.00,SSW,196,11.0,21.0,71,0.00,,,0.00,108.000000,,2013-04-20 02:32:00,
2013-04-19 20:40:00,30.0,22.0,-100.00,SSW,204,12.0,20.0,71,0.00,,,0.00,8.000000,,2013-04-20 02:40:00,
2013-04-19 21:01:00,30.0,22.0,-100.00,SSW,204,12.0,20.0,71,0.00,,,0.00,8.000000,,2013-04-20 03:01:00,
2013-04-19 21:11:00,30.0,22.0,-100.00,SSW,204,12.0,20.0,71,0.00,,,0.00,8.000000,,2013-04-20 03:11:00,
2013-04-19 21:21:00,30.0,22.0,-100.00,SSW,204,12.0,20.0,71,0.00,,,0.00,8.000000,,2013-04-20 03:21:00,
2013-04-19 21:33:00,30.0,22.0,-100.00,SSW,204,12.0,20.0,71,0.00,,,0.00,8.000000,,2013-04-20 03:33:00,
2013-04-19 21:40:00,30.0,22.0,-100.00,SW,222,10.0,18.0,71,0.00,,,0.00,0.000000,,2013-04-20 03:40:00,
2013-04-19 22:03:00,30.0,22.0,-100.00,SW,222,10.0,18.0,71,0.00,,,0.00,0.000000,,2013-04-20 04:03:00,
2013-04-19 22:12:00,30.0,22.0,-100.00,SW,222,10.0,18.0,71,0.00,,,0.00,0.000000,,2013-04-20 04:12:00,
2013-04-19 22:23:00,30.0,22.0,-100.00,SW,222,10.0,18.0,71,0.00,,,0.00,0.000000,,2013-04-20 04:23:00,
2013-04-19 22:32:00,30.0,22.0,-100.00,SW,222,10.0,18.0,71,0.00,,,0.00,0.000000,,2013-04-20 04:32:00,
2013-04-19 22:40:00,29.0,25.0,-100.00,SSW,203,9.0,16.0,83,0.00,,,0.00,0.000000,,2013-04-20 04:40:00,
2013-04-19 23:02:00,29.0,25.0,-100.00,SSW,203,9.0,16.0,83,0.00,,,0.00,0.000000,,2013-04-20 05:02:00,
2013-04-19 23:12:00,29.0,25.0,-100.00,SSW,203,9.0,16.0,83,0.00,,,0.00,0.000000,,2013-04-20 05:12:00,
2013-04-19 23:21:00,29.0,25.0,-100.00,SSW,203,9.0,16.0,83,0.00,,,0.00,0.000000,,2013-04-20 05:21:00,
2013-04-19 23:32:00,29.0,25.0,-100.00,SSW,203,9.0,16.0,83,0.00,,,0.00,0.000000,,2013-04-20 05:32:00,
2013-04-19 23:40:00,30.0,24.0,-100.00,West,276,3.0,17.0,79,0.00,,,0.00,0.000000,,2013-04-20 05:40:00,